This demonstration page uses our WeatherBlox Daily Observations layout. Learn more.

36.17497, -115.13722

Hourly Observations for June 22, 2016

Temp ( °F °C ) Dew Point ( °F °C ) Humidity (%) Winds ( mph kmh ) Pressure ( in mb ) Visibility ( mi km ) Precip ( " mm )
12:53 am 00:53 Clear 93 33.9 37 2.8 14 14 SW 7 11 29.73 1007 10 16.0934 0 0
1:53 am 01:53 Clear 92 33.3 36 2.2 14 14 SW 6 9 29.74 1007 10 16.0934 0 0
2:53 am 02:53 Clear 88 31.1 38 3.3 17 17 SSE 5 7 29.74 1007 10 16.0934 0 0
3:53 am 03:53 Clear 83 28.3 39 3.9 21 21 Calm 29.75 1007 10 16.0934 0 0
4:53 am 04:53 Clear 81 27.2 39 3.9 22 22 Calm 29.75 1008 10 16.0934 0 0
5:53 am 05:53 Sunny 81 27.2 40 4.4 23 23 NE 6 9 29.78 1008 10 16.0934 0 0
6:53 am 06:53 Sunny 86 30 37 2.8 18 18 ESE 7 11 29.79 1009 10 16.0934 0 0
7:53 am 07:53 Sunny 89 31.7 37 2.8 16 16 SE 7 11 29.81 1009 10 16.0934 0 0
8:53 am 08:53 Sunny 92 33.3 38 3.3 15 15 VRB 6 9 29.82 1010 10 16.0934 0 0
9:53 am 09:53 Sunny 95 35 39 4 14 14 ESE 9 15 29.71 1006 10 16.0934 0 0
10:53 am 10:53 Sunny 98 36.7 37 2.8 12 12 S 9 15 29.82 1010 10 16.0934 0 0
11:53 am 11:53 Sunny 100 37.8 37 2.8 11 11 VRB 3 6 29.8 1009 10 16.0934 0 0
12:53 pm 12:53 Sunny 103 39.4 37 2.8 10 10 SSE 12 19 29.78 1008 10 16.0934 0 0
1:53 pm 13:53 Sunny 106 41.1 36 2.2 9 9 SE 13 20 29.75 1007 10 16.0934 0 0
2:53 pm 14:53 Sunny 108 42.2 36 2.2 8 8 S 16 26 29.72 1007 10 16.0934 0 0
3:35 pm 15:35 Sunny 108 42.2 35 1.7 8 8 SSW 18 30 29.53 1000 10 16.0934 0 0
3:53 pm 15:53 Sunny 109 42.8 35 1.7 8 8 SSW 13 20 29.71 1006 10 16.0934 0 0
4:53 pm 16:53 Sunny 108 42.2 34 1.1 8 8 SW 15 24 29.69 1006 10 16.0934 0 0
5:53 pm 17:53 Sunny 108 42.2 34 1.1 8 8 WSW 16 26 29.68 1005 10 16.0934 0 0
6:53 pm 18:53 Sunny 106 41.1 33 0.6 8 8 SW 14 22 29.67 1005 10 16.0934 0 0
7:53 pm 19:53 Sunny 104 40 33 0.6 8 8 SW 9 15 29.68 1005 10 16.0934 0 0
8:53 pm 20:53 Clear 101 38.3 34 1.1 10 10 SW 12 19 29.7 1006 10 16.0934 0 0
9:53 pm 21:53 Clear 99 37.2 32 0 9 9 SSW 9 15 29.71 1006 10 16.0934 0 0
10:53 pm 22:53 Clear 96 35.6 33 0.6 11 11 SSW 8 13 29.72 1007 10 16.0934 0 0
11:53 pm 23:53 Clear 95 35 27 -2.8 9 9 SSW 14 22 29.73 1007 10 16.0934 0 0

Powered by AerisWeather